| time (UTC) | temp F | wind direction | speed knots | gust knots | rain 1hr in | rain 24hr in | rain mn in | humidity % | barometer mb |
| 20260906191236 | 57 | 98 | 5.2 | 3.5 | 0.00 | 0.00 | 0.00 | 74 | 1018.8 |
| 20260906190737 | 57 | 148 | 5.2 | 4.3 | 0.00 | 0.00 | 0.00 | 74 | 1018.9 |
| 20260906190237 | 57 | 110 | 5.2 | 7.8 | 0.00 | 0.00 | 0.00 | 74 | 1019.0 |
| 20260906185738 | 57 | 149 | 5.2 | 2.6 | 0.00 | 0.00 | 0.00 | 74 | 1019.1 |
| 20260906185238 | 56 | 195 | 4.3 | 4.3 | 0.00 | 0.00 | 0.00 | 75 | 1019.2 |
| 20260906184739 | 56 | 84 | 5.2 | 3.5 | 0.00 | 0.00 | 0.00 | 76 | 1019.3 |
| 20260906184236 | 56 | 208 | 3.5 | 6.1 | 0.00 | 0.00 | 0.00 | 77 | 1019.4 |
| 20260906183737 | 56 | 194 | 5.2 | 5.2 | 0.00 | 0.00 | 0.00 | 76 | 1019.6 |
| 20260906183237 | 56 | 211 | 5.2 | 3.5 | 0.00 | 0.00 | 0.00 | 77 | 1019.7 |
| 20260906182738 | 56 | 184 | 4.3 | 4.3 | 0.00 | 0.00 | 0.00 | 78 | 1019.7 |
| 20260906182238 | 55 | 191 | 6.1 | 5.2 | 0.00 | 0.00 | 0.00 | 79 | 1019.8 |
| 20260906181739 | 55 | 58 | 4.3 | 1.7 | 0.00 | 0.00 | 0.00 | 79 | 1019.8 |
| 20260906181237 | 55 | 205 | 5.2 | 3.5 | 0.00 | 0.00 | 0.00 | 80 | 1019.9 |
| 20260906180737 | 55 | 148 | 3.5 | 3.5 | 0.00 | 0.00 | 0.00 | 81 | 1020.0 |
| 20260906180238 | 54 | 122 | 4.3 | 4.3 | 0.00 | 0.00 | 0.00 | 81 | 1020.1 |
| 20260906175738 | 54 | 131 | 6.1 | 5.2 | 0.00 | 0.00 | 0.00 | 81 | 1020.3 |
| 20260906175239 | 54 | 125 | 4.3 | 3.5 | 0.00 | 0.00 | 0.00 | 82 | 1020.4 |
| 20260906174739 | 54 | 158 | 3.5 | 2.6 | 0.00 | 0.00 | 0.00 | 83 | 1020.4 |
| 20260906174237 | 54 | 179 | 4.3 | 5.2 | 0.00 | 0.00 | 0.00 | 84 | 1020.5 |
| 20260906173738 | 53 | 231 | 3.5 | 5.2 | 0.00 | 0.00 | 0.00 | 85 | 1020.6 |
| 20260906173238 | 53 | 152 | 3.5 | 3.5 | 0.00 | 0.00 | 0.00 | 86 | 1020.7 |
| 20260906172739 | 53 | 165 | 4.3 | 3.5 | 0.00 | 0.00 | 0.00 | 86 | 1020.8 |
| 20260906172239 | 53 | 184 | 3.5 | 1.7 | 0.00 | 0.00 | 0.00 | 88 | 1020.9 |
| 20260906171740 | 53 | 98 | 3.5 | 4.3 | 0.00 | 0.00 | 0.00 | 87 | 1021.0 |
| 20260906171238 | 53 | 97 | 3.5 | 4.3 | 0.00 | 0.00 | 0.00 | 88 | 1021.1 |
| 20260906170738 | 52 | 198 | 3.5 | 5.2 | 0.00 | 0.00 | 0.00 | 89 | 1021.2 |
| 20260906170239 | 52 | 176 | 4.3 | 4.3 | 0.00 | 0.00 | 0.00 | 90 | 1021.2 |
| 20260906165739 | 52 | 169 | 5.2 | 7.8 | 0.00 | 0.00 | 0.00 | 89 | 1021.3 |
| 20260906165240 | 52 | 183 | 5.2 | 4.3 | 0.00 | 0.00 | 0.00 | 90 | 1021.3 |
| 20260906164740 | 52 | 15 | 2.6 | 3.5 | 0.00 | 0.00 | 0.00 | 90 | 1021.3 |
| 20260906164238 | 52 | 174 | 2.6 | 4.3 | 0.00 | 0.00 | 0.00 | 92 | 1021.4 |
| 20260906163739 | 52 | 118 | 2.6 | 6.1 | 0.00 | 0.00 | 0.00 | 92 | 1021.5 |
| 20260906163239 | 51 | 207 | 4.3 | 4.3 | 0.00 | 0.00 | 0.00 | 91 | 1021.5 |
| 20260906162740 | 51 | 208 | 3.5 | 3.5 | 0.00 | 0.00 | 0.00 | 93 | 1021.6 |
| 20260906162241 | 51 | 172 | 3.5 | 4.3 | 0.00 | 0.00 | 0.00 | 94 | 1021.6 |
| 20260906161741 | 51 | 143 | 3.5 | 5.2 | 0.00 | 0.00 | 0.00 | 94 | 1021.6 |
| 20260906161239 | 51 | 90 | 4.3 | 0.9 | 0.00 | 0.00 | 0.00 | 95 | 1021.7 |
| 20260906160740 | 51 | 143 | 5.2 | 5.2 | 0.00 | 0.00 | 0.00 | 95 | 1021.7 |
| 20260906160240 | 51 | 186 | 3.5 | 6.1 | 0.00 | 0.00 | 0.00 | 95 | 1021.8 |
| 20260906155741 | 50 | 165 | 5.2 | 2.6 | 0.00 | 0.00 | 0.00 | 95 | 1021.8 |
| 20260906155241 | 50 | 152 | 3.5 | 2.6 | 0.00 | 0.00 | 0.00 | 96 | 1021.8 |
| 20260906154742 | 50 | 180 | 3.5 | 5.2 | 0.00 | 0.00 | 0.00 | 96 | 1021.8 |
| 20260906154240 | 50 | 165 | 2.6 | 5.2 | 0.00 | 0.00 | 0.00 | 96 | 1021.9 |
| 20260906153740 | 49 | 115 | 5.2 | 7.0 | 0.00 | 0.00 | 0.00 | 96 | 1022.0 |
| 20260906153241 | 49 | 128 | 4.3 | 2.6 | 0.00 | 0.00 | 0.00 | 96 | 1022.0 |
| 20260906152742 | 49 | 91 | 3.5 | 1.7 | 0.00 | 0.00 | 0.00 | 96 | 1022.0 |
| 20260906152242 | 49 | 138 | 4.3 | 3.5 | 0.00 | 0.00 | 0.00 | 96 | 1022.0 |
| 20260906151743 | 49 | 117 | 4.3 | 3.5 | 0.00 | 0.00 | 0.00 | 96 | 1022.1 |
| 20260906151241 | 49 | 111 | 3.5 | 1.7 | 0.00 | 0.00 | 0.00 | 97 | 1022.1 |
| 20260906150741 | 49 | 96 | 2.6 | 4.3 | 0.00 | 0.00 | 0.00 | 97 | 1022.2 |
| 20260906150242 | 48 | 113 | 4.3 | 3.5 | 0.00 | 0.00 | 0.00 | 97 | 1022.2 |
| 20260906145742 | 48 | 155 | 4.3 | 6.1 | 0.00 | 0.00 | 0.00 | 97 | 1022.2 |
| 20260906145243 | 48 | 122 | 3.5 | 2.6 | 0.00 | 0.00 | 0.00 | 97 | 1022.2 |
| 20260906144743 | 48 | 142 | 4.3 | 3.5 | 0.00 | 0.00 | 0.00 | 97 | 1022.2 |
| 20260906144241 | 48 | 122 | 3.5 | 2.6 | 0.00 | 0.00 | 0.00 | 97 | 1022.3 |
| 20260906143742 | 48 | 105 | 2.6 | 4.3 | 0.00 | 0.00 | 0.00 | 97 | 1022.3 |
| 20260906143242 | 48 | 162 | 4.3 | 2.6 | 0.00 | 0.00 | 0.00 | 97 | 1022.3 |
| 20260906142743 | 48 | 210 | 3.5 | 2.6 | 0.00 | 0.00 | 0.00 | 97 | 1022.3 |
| 20260906142244 | 48 | 94 | 4.3 | 2.6 | 0.00 | 0.00 | 0.00 | 97 | 1022.4 |
| 20260906141744 | 48 | 75 | 3.5 | 6.1 | 0.00 | 0.00 | 0.00 | 98 | 1022.4 |
| 20260906141242 | 48 | 114 | 2.6 | 4.3 | 0.00 | 0.00 | 0.00 | 98 | 1022.4 |
| 20260906140743 | 47 | 149 | 3.5 | 2.6 | 0.00 | 0.00 | 0.00 | 98 | 1022.4 |
| 20260906140243 | 47 | 127 | 3.5 | 3.5 | 0.00 | 0.00 | 0.00 | 98 | 1022.5 |
| 20260906135744 | 47 | 117 | 4.3 | 2.6 | 0.00 | 0.00 | 0.00 | 98 | 1022.5 |
| 20260906135244 | 47 | 94 | 2.6 | 3.5 | 0.00 | 0.00 | 0.00 | 98 | 1022.5 |
| 20260906134745 | 47 | 190 | 3.5 | 2.6 | 0.00 | 0.00 | 0.00 | 98 | 1022.5 |
| 20260906134243 | 47 | 146 | 5.2 | 3.5 | 0.00 | 0.00 | 0.00 | 98 | 1022.6 |
| 20260906133743 | 47 | 76 | 3.5 | 4.3 | 0.00 | 0.00 | 0.00 | 98 | 1022.6 |
| 20260906133244 | 47 | 177 | 6.1 | 4.3 | 0.00 | 0.00 | 0.00 | 98 | 1022.6 |
| 20260906132744 | 47 | 72 | 3.5 | 4.3 | 0.00 | 0.00 | 0.00 | 98 | 1022.5 |
| 20260906132245 | 47 | 68 | 2.6 | 3.5 | 0.00 | 0.00 | 0.00 | 98 | 1022.5 |
| 20260906131745 | 47 | 100 | 2.6 | 4.3 | 0.00 | 0.00 | 0.00 | 98 | 1022.6 |
| 20260906131243 | 47 | 110 | 2.6 | 1.7 | 0.00 | 0.00 | 0.00 | 99 | 1022.5 |
| 20260906130744 | 47 | 103 | 4.3 | 3.5 | 0.00 | 0.00 | 0.00 | 99 | 1022.4 |
| 20260906130244 | 47 | 107 | 6.1 | 7.0 | 0.00 | 0.00 | 0.00 | 99 | 1022.5 |
| 20260906125745 | 47 | 127 | 3.5 | 3.5 | 0.00 | 0.00 | 0.00 | 99 | 1022.5 |
| 20260906125245 | 47 | 111 | 5.2 | 4.3 | 0.00 | 0.00 | 0.00 | 99 | 1022.6 |
| 20260906124746 | 47 | 107 | 4.3 | 3.5 | 0.00 | 0.00 | 0.00 | 99 | 1022.6 |
| 20260906124244 | 47 | 75 | 5.2 | 4.3 | 0.00 | 0.00 | 0.00 | 99 | 1022.7 |
| 20260906123744 | 47 | 128 | 2.6 | 2.6 | 0.00 | 0.00 | 0.00 | 99 | 1022.7 |
| 20260906123245 | 47 | 141 | 3.5 | 5.2 | 0.00 | 0.00 | 0.00 | 99 | 1022.7 |
| 20260906122745 | 47 | 100 | 3.5 | 2.6 | 0.00 | 0.00 | 0.00 | 99 | 1022.7 |
| 20260906122246 | 47 | 125 | 5.2 | 3.5 | 0.00 | 0.00 | 0.00 | 99 | 1022.7 |
| 20260906121746 | 47 | 135 | 2.6 | 3.5 | 0.00 | 0.00 | 0.00 | 99 | 1022.8 |
| 20260906121244 | 47 | 91 | 2.6 | 2.6 | 0.00 | 0.00 | 0.00 | 99 | 1022.8 |
| 20260906120744 | 47 | 146 | 4.3 | 2.6 | 0.00 | 0.00 | 0.00 | 99 | 1022.8 |
| 20260906120245 | 47 | 101 | 2.6 | 3.5 | 0.00 | 0.00 | 0.00 | 100 | 1022.8 |
| 20260906115745 | 47 | 96 | 3.5 | 1.7 | 0.00 | 0.00 | 0.00 | 100 | 1022.8 |
| 20260906115246 | 47 | 94 | 2.6 | 0.9 | 0.00 | 0.00 | 0.00 | 100 | 1022.8 |
| 20260906114746 | 47 | 122 | 2.6 | 4.3 | 0.00 | 0.00 | 0.00 | 100 | 1022.8 |
| 20260906114244 | 47 | 141 | 2.6 | 4.3 | 0.00 | 0.00 | 0.00 | 100 | 1022.8 |
| 20260906113745 | 47 | 139 | 3.5 | 2.6 | 0.00 | 0.00 | 0.00 | 100 | 1022.8 |
| 20260906113245 | 47 | 160 | 0.9 | 1.7 | 0.00 | 0.00 | 0.00 | 100 | 1022.8 |
| 20260906112746 | 47 | 136 | 1.7 | 2.6 | 0.00 | 0.00 | 0.00 | 100 | 1022.9 |
| 20260906112247 | 47 | 149 | 2.6 | 2.6 | 0.00 | 0.00 | 0.00 | 100 | 1022.8 |
| 20260906111747 | 46 | 172 | 2.6 | 1.7 | 0.00 | 0.00 | 0.00 | 100 | 1023.0 |
| 20260906111245 | 46 | 101 | 3.5 | 4.3 | 0.00 | 0.00 | 0.00 | 99 | 1023.0 |
| 20260906110745 | 46 | 98 | 2.6 | 2.6 | 0.00 | 0.00 | 0.00 | 100 | 1023.0 |
| 20260906110246 | 46 | 83 | 3.5 | 3.5 | 0.00 | 0.00 | 0.00 | 100 | 1022.9 |
| 20260906105746 | 46 | 107 | 2.6 | 0.9 | 0.00 | 0.00 | 0.00 | 100 | 1023.0 |
| 20260906105247 | 46 | 134 | 3.5 | 4.3 | 0.00 | 0.00 | 0.00 | 100 | 1023.0 |
| 20260906104747 | 46 | 165 | 2.6 | 3.5 | 0.00 | 0.00 | 0.00 | 100 | 1023.0 |
| 20260906104245 | 46 | 152 | 2.6 | 3.5 | 0.00 | 0.00 | 0.00 | 100 | 1023.1 |
| 20260906103746 | 46 | 108 | 3.5 | 2.6 | 0.00 | 0.00 | 0.00 | 100 | 1023.0 |
| 20260906103246 | 46 | 94 | 3.5 | 4.3 | 0.00 | 0.00 | 0.00 | 100 | 1023.1 |
| 20260906102747 | 46 | 96 | 3.5 | 2.6 | 0.00 | 0.00 | 0.00 | 100 | 1023.2 |
| 20260906102247 | 46 | 83 | 3.5 | 0.9 | 0.00 | 0.00 | 0.00 | 100 | 1023.2 |
| 20260906101748 | 46 | 115 | 1.7 | 6.1 | 0.00 | 0.00 | 0.00 | 100 | 1023.3 |
| 20260906101246 | 46 | 127 | 3.5 | 3.5 | 0.00 | 0.00 | 0.00 | 100 | 1023.3 |
| 20260906100746 | 46 | 118 | 2.6 | 3.5 | 0.00 | 0.00 | 0.00 | 100 | 1023.3 |
| 20260906100247 | 46 | 90 | 1.7 | 4.3 | 0.00 | 0.00 | 0.00 | 99 | 1023.4 |
| 20260906095747 | 46 | 132 | 4.3 | 5.2 | 0.00 | 0.00 | 0.00 | 99 | 1023.4 |
| 20260906095248 | 46 | 100 | 3.5 | 4.3 | 0.00 | 0.00 | 0.00 | 99 | 1023.4 |
| 20260906094748 | 46 | 69 | 2.6 | 2.6 | 0.00 | 0.00 | 0.00 | 99 | 1023.4 |
| 20260906094246 | 46 | 121 | 3.5 | 3.5 | 0.00 | 0.00 | 0.00 | 99 | 1023.4 |
| 20260906093746 | 46 | 141 | 3.5 | 3.5 | 0.00 | 0.00 | 0.00 | 99 | 1023.5 |
| 20260906093247 | 46 | 159 | 3.5 | 1.7 | 0.00 | 0.00 | 0.00 | 99 | 1023.5 |
| 20260906092747 | 46 | 79 | 2.6 | 5.2 | 0.00 | 0.00 | 0.00 | 99 | 1023.4 |
| 20260906092248 | 46 | 65 | 0.9 | 1.7 | 0.00 | 0.00 | 0.00 | 99 | 1023.5 |
| 20260906091749 | 46 | 113 | 4.3 | 2.6 | 0.00 | 0.00 | 0.00 | 99 | 1023.5 |
| 20260906091246 | 46 | 110 | 4.3 | 2.6 | 0.00 | 0.00 | 0.00 | 99 | 1023.4 |
| 20260906090746 | 46 | 128 | 3.5 | 3.5 | 0.00 | 0.00 | 0.00 | 99 | 1023.3 |
| 20260906090247 | 46 | 113 | 2.6 | 3.5 | 0.00 | 0.00 | 0.00 | 99 | 1023.3 |
| 20260906085747 | 46 | 121 | 4.3 | 4.3 | 0.00 | 0.00 | 0.00 | 99 | 1023.3 |
| 20260906085248 | 46 | 103 | 5.2 | 2.6 | 0.00 | 0.00 | 0.00 | 99 | 1023.3 |
| 20260906084748 | 46 | 75 | 4.3 | 3.5 | 0.00 | 0.00 | 0.00 | 99 | 1023.4 |
| 20260906084246 | 46 | 150 | 4.3 | 4.3 | 0.00 | 0.00 | 0.00 | 99 | 1023.4 |
| 20260906083747 | 46 | 59 | 4.3 | 2.6 | 0.00 | 0.00 | 0.00 | 99 | 1023.3 |
| 20260906083247 | 46 | 131 | 3.5 | 1.7 | 0.00 | 0.00 | 0.00 | 99 | 1023.3 |
| 20260906082748 | 46 | 134 | 4.3 | 3.5 | 0.00 | 0.00 | 0.00 | 99 | 1023.3 |
| 20260906082249 | 46 | 107 | 2.6 | 1.7 | 0.00 | 0.00 | 0.00 | 100 | 1023.4 |
| 20260906081749 | 46 | 139 | 4.3 | 3.5 | 0.00 | 0.00 | 0.00 | 100 | 1023.4 |
| 20260906081247 | 46 | 131 | 4.3 | 4.3 | 0.00 | 0.00 | 0.00 | 100 | 1023.4 |
| 20260906080747 | 46 | 117 | 3.5 | 2.6 | 0.00 | 0.00 | 0.00 | 100 | 1023.4 |
| 20260906080248 | 46 | 114 | 4.3 | 4.3 | 0.00 | 0.00 | 0.00 | 100 | 1023.3 |
| 20260906075748 | 46 | 122 | 4.3 | 4.3 | 0.00 | 0.00 | 0.00 | 100 | 1023.3 |
| 20260906075249 | 46 | 70 | 3.5 | 2.6 | 0.00 | 0.00 | 0.00 | 100 | 1023.3 |
| 20260906074749 | 46 | 111 | 2.6 | 3.5 | 0.00 | 0.00 | 0.00 | 100 | 1023.4 |
| 20260906074247 | 46 | 135 | 2.6 | 3.5 | 0.00 | 0.00 | 0.00 | 100 | 1023.5 |
| 20260906073748 | 46 | 96 | 4.3 | 1.7 | 0.00 | 0.00 | 0.00 | 100 | 1023.4 |
| 20260906073248 | 46 | 110 | 4.3 | 2.6 | 0.00 | 0.00 | 0.00 | 100 | 1023.5 |
| 20260906072749 | 46 | 150 | 2.6 | 6.1 | 0.00 | 0.00 | 0.00 | 100 | 1023.5 |
| 20260906072250 | 46 | 79 | 2.6 | 3.5 | 0.00 | 0.00 | 0.00 | 100 | 1023.5 |
| 20260906071750 | 46 | 70 | 2.6 | 0.9 | 0.00 | 0.00 | 0.00 | 100 | 1023.5 |
| 20260906071248 | 46 | 148 | 2.6 | 3.5 | 0.00 | 0.00 | 0.00 | 100 | 1023.5 |
| 20260906070748 | 46 | 163 | 4.3 | 2.6 | 0.00 | 0.00 | 0.00 | 100 | 1023.5 |
| 20260906070249 | 46 | 73 | 4.3 | 4.3 | 0.00 | 0.00 | 0.00 | 100 | 1023.4 |
| 20260906065749 | 46 | 135 | 1.7 | 3.5 | 0.00 | 0.00 | 0.00 | 100 | 1023.4 |
| 20260906065250 | 46 | 136 | 4.3 | 1.7 | 0.00 | 0.00 | 0.00 | 100 | 1023.5 |
| 20260906064750 | 46 | 183 | 4.3 | 2.6 | 0.00 | 0.00 | 0.00 | 100 | 1023.5 |
| 20260906064248 | 46 | 77 | 3.5 | 2.6 | 0.00 | 0.00 | 0.00 | 100 | 1023.4 |
| 20260906063749 | 46 | 89 | 2.6 | 1.7 | 0.00 | 0.00 | 0.00 | 100 | 1023.4 |
| 20260906063249 | 46 | 97 | 1.7 | 4.3 | 0.00 | 0.00 | 0.00 | 100 | 1023.3 |
| 20260906062750 | 46 | 69 | 2.6 | 4.3 | 0.00 | 0.00 | 0.00 | 100 | 1023.3 |
| 20260906062250 | 46 | 128 | 2.6 | 3.5 | 0.00 | 0.00 | 0.00 | 100 | 1023.2 |
| 20260906061751 | 46 | 141 | 2.6 | 3.5 | 0.00 | 0.00 | 0.00 | 100 | 1023.2 |
| 20260906061249 | 46 | 84 | 2.6 | 2.6 | 0.00 | 0.00 | 0.00 | 100 | 1023.1 |
| 20260906060749 | 46 | 141 | 2.6 | 4.3 | 0.00 | 0.00 | 0.00 | 100 | 1023.1 |
| 20260906060249 | 46 | 127 | 3.5 | 7.0 | 0.00 | 0.00 | 0.00 | 100 | 1023.1 |
| 20260906055750 | 46 | 49 | 4.3 | 7.8 | 0.00 | 0.00 | 0.00 | 100 | 1023.1 |
| 20260906055251 | 46 | 86 | 3.5 | 3.5 | 0.00 | 0.00 | 0.00 | 100 | 1023.1 |
| 20260906054751 | 46 | 132 | 3.5 | 4.3 | 0.00 | 0.00 | 0.00 | 100 | 1023.1 |
| 20260906054249 | 46 | 167 | 5.2 | 4.3 | 0.00 | 0.00 | 0.00 | 100 | 1023.1 |
| 20260906053749 | 46 | 89 | 2.6 | 6.1 | 0.00 | 0.00 | 0.00 | 100 | 1023.0 |
| 20260906053250 | 47 | 98 | 2.6 | 4.3 | 0.00 | 0.00 | 0.00 | 100 | 1023.0 |
| 20260906052750 | 47 | 145 | 2.6 | 3.5 | 0.00 | 0.00 | 0.00 | 100 | 1022.9 |
| 20260906052251 | 46 | 77 | 4.3 | 3.5 | 0.00 | 0.00 | 0.00 | 99 | 1022.9 |
| 20260906051751 | 46 | 143 | 4.3 | 7.0 | 0.00 | 0.00 | 0.00 | 99 | 1022.9 |
| 20260906051249 | 47 | 68 | 3.5 | 5.2 | 0.00 | 0.00 | 0.00 | 99 | 1022.9 |
| 20260906050750 | 47 | 127 | 2.6 | 4.3 | 0.00 | 0.00 | 0.00 | 99 | 1022.9 |
| 20260906050250 | 47 | 98 | 4.3 | 0.9 | 0.00 | 0.00 | 0.00 | 99 | 1022.8 |
| 20260906045751 | 47 | 125 | 3.5 | 3.5 | 0.00 | 0.00 | 0.00 | 99 | 1022.8 |
| 20260906045251 | 47 | 105 | 2.6 | 2.6 | 0.00 | 0.00 | 0.00 | 99 | 1022.8 |
| 20260906044752 | 47 | 97 | 3.5 | 4.3 | 0.00 | 0.00 | 0.00 | 99 | 1022.8 |
| 20260906044250 | 47 | 136 | 3.5 | 3.5 | 0.00 | 0.00 | 0.00 | 99 | 1022.8 |
| 20260906043750 | 47 | 91 | 3.5 | 3.5 | 0.00 | 0.00 | 0.00 | 99 | 1022.8 |
| 20260906043251 | 47 | 115 | 2.6 | 4.3 | 0.00 | 0.00 | 0.00 | 99 | 1022.8 |
| 20260906042751 | 47 | 83 | 2.6 | 3.5 | 0.00 | 0.00 | 0.00 | 99 | 1022.7 |
| 20260906042252 | 47 | 118 | 5.2 | 2.6 | 0.00 | 0.00 | 0.00 | 99 | 1022.6 |
| 20260906041752 | 47 | 146 | 4.3 | 1.7 | 0.00 | 0.00 | 0.00 | 100 | 1022.5 |
| 20260906041250 | 47 | 111 | 2.6 | 5.2 | 0.00 | 0.00 | 0.00 | 99 | 1022.5 |
| 20260906040751 | 47 | 97 | 2.6 | 2.6 | 0.00 | 0.00 | 0.00 | 100 | 1022.6 |
| 20260906040251 | 47 | 66 | 2.6 | 3.5 | 0.00 | 0.00 | 0.00 | 100 | 1022.5 |
| 20260906035752 | 47 | 113 | 2.6 | 2.6 | 0.00 | 0.00 | 0.00 | 100 | 1022.6 |
| 20260906035252 | 47 | 90 | 4.3 | 4.3 | 0.00 | 0.00 | 0.00 | 99 | 1022.6 |
| 20260906034753 | 47 | 125 | 3.5 | 3.5 | 0.00 | 0.00 | 0.00 | 100 | 1022.6 |
| 20260906034251 | 47 | 91 | 2.6 | 4.3 | 0.00 | 0.00 | 0.00 | 100 | 1022.5 |
| 20260906033752 | 47 | 70 | 2.6 | 3.5 | 0.00 | 0.00 | 0.00 | 100 | 1022.5 |
| 20260906033252 | 47 | 90 | 2.6 | 4.3 | 0.00 | 0.00 | 0.00 | 99 | 1022.4 |
| 20260906032753 | 47 | 93 | 3.5 | 3.5 | 0.00 | 0.00 | 0.00 | 99 | 1022.5 |
| 20260906032253 | 47 | 73 | 1.7 | 1.7 | 0.00 | 0.00 | 0.00 | 99 | 1022.5 |
| 20260906031754 | 47 | 68 | 3.5 | 2.6 | 0.00 | 0.00 | 0.00 | 99 | 1022.5 |
| 20260906031252 | 47 | 107 | 3.5 | 2.6 | 0.00 | 0.00 | 0.00 | 99 | 1022.5 |
| 20260906030752 | 47 | 75 | 3.5 | 2.6 | 0.00 | 0.00 | 0.00 | 99 | 1022.5 |
| 20260906030253 | 47 | 93 | 3.5 | 5.2 | 0.00 | 0.00 | 0.00 | 98 | 1022.4 |
| 20260906025753 | 47 | 97 | 2.6 | 0.9 | 0.00 | 0.00 | 0.00 | 98 | 1022.5 |
| 20260906025254 | 47 | 97 | 1.7 | 1.7 | 0.00 | 0.00 | 0.00 | 98 | 1022.5 |
| 20260906024754 | 47 | 69 | 4.3 | 1.7 | 0.00 | 0.00 | 0.00 | 98 | 1022.5 |
| 20260906024252 | 47 | 107 | 2.6 | 1.7 | 0.00 | 0.00 | 0.00 | 97 | 1022.4 |
| 20260906023753 | 47 | 68 | 4.3 | 3.5 | 0.00 | 0.00 | 0.00 | 97 | 1022.5 |
| 20260906023253 | 47 | 98 | 1.7 | 2.6 | 0.00 | 0.00 | 0.00 | 97 | 1022.4 |
| 20260906022754 | 47 | 114 | 3.5 | 4.3 | 0.00 | 0.00 | 0.00 | 97 | 1022.4 |
| 20260906022254 | 47 | 107 | 3.5 | 0.0 | 0.00 | 0.00 | 0.00 | 97 | 1022.3 |
| 20260906021755 | 47 | 73 | 3.5 | 7.0 | 0.00 | 0.00 | 0.00 | 97 | 1022.3 |
| 20260906021252 | 47 | 110 | 4.3 | 5.2 | 0.00 | 0.00 | 0.00 | 96 | 1022.3 |
| 20260906020753 | 47 | 103 | 4.3 | 4.3 | 0.00 | 0.00 | 0.00 | 96 | 1022.3 |
| 20260906020253 | 47 | 105 | 5.2 | 2.6 | 0.00 | 0.00 | 0.00 | 96 | 1022.2 |
| 20260906015754 | 48 | 55 | 4.3 | 5.2 | 0.00 | 0.00 | 0.00 | 96 | 1022.1 |
| 20260906015254 | 48 | 98 | 5.2 | 0.0 | 0.00 | 0.00 | 0.00 | 95 | 1022.1 |
| 20260906014755 | 48 | 37 | 6.1 | 3.5 | 0.00 | 0.00 | 0.00 | 95 | 1022.1 |
| 20260906014253 | 48 | 83 | 6.1 | 6.1 | 0.00 | 0.00 | 0.00 | 95 | 1022.0 |
| 20260906013753 | 48 | 66 | 3.5 | 6.1 | 0.00 | 0.00 | 0.00 | 95 | 1022.0 |
| 20260906013254 | 48 | 49 | 4.3 | 6.1 | 0.00 | 0.00 | 0.00 | 95 | 1022.0 |
| 20260906012754 | 48 | 89 | 4.3 | 2.6 | 0.00 | 0.00 | 0.00 | 94 | 1021.9 |
| 20260906012255 | 48 | 100 | 4.3 | 3.5 | 0.00 | 0.00 | 0.00 | 93 | 1021.9 |
| 20260906011755 | 48 | 105 | 3.5 | 4.3 | 0.00 | 0.00 | 0.00 | 94 | 1021.8 |
| 20260906011253 | 48 | 100 | 6.1 | 2.6 | 0.00 | 0.00 | 0.00 | 94 | 1021.7 |
| 20260906010754 | 49 | 90 | 3.5 | 4.3 | 0.00 | 0.00 | 0.00 | 93 | 1021.7 |
| 20260906010254 | 49 | 128 | 3.5 | 1.7 | 0.00 | 0.00 | 0.00 | 93 | 1021.6 |
| 20260906005755 | 49 | 77 | 5.2 | 2.6 | 0.00 | 0.00 | 0.00 | 92 | 1021.7 |
| 20260906005255 | 49 | 108 | 4.3 | 2.6 | 0.00 | 0.00 | 0.00 | 90 | 1021.6 |
| 20260906004756 | 49 | 80 | 4.3 | 0.0 | 0.00 | 0.00 | 0.00 | 89 | 1021.6 |
| 20260906004253 | 49 | 104 | 5.2 | 4.3 | 0.00 | 0.00 | 0.00 | 89 | 1021.5 |
| 20260906003754 | 50 | 80 | 4.3 | 5.2 | 0.00 | 0.00 | 0.00 | 88 | 1021.5 |
| 20260906003255 | 50 | 84 | 5.2 | 3.5 | 0.00 | 0.00 | 0.00 | 87 | 1021.5 |
| 20260906002755 | 50 | 94 | 3.5 | 4.3 | 0.00 | 0.00 | 0.00 | 87 | 1021.6 |
| 20260906002256 | 49 | 120 | 4.3 | 6.1 | 0.00 | 0.00 | 0.00 | 86 | 1021.6 |
| 20260906001756 | 50 | 62 | 4.3 | 2.6 | 0.00 | 0.00 | 0.00 | 85 | 1021.5 |
| 20260906001254 | 50 | 63 | 2.6 | 3.5 | 0.00 | 0.00 | 0.00 | 85 | 1021.4 |
| 20260906000755 | 50 | 37 | 6.1 | 3.5 | 0.00 | 0.00 | 0.00 | 84 | 1021.3 |
| 20260906000256 | 50 | 84 | 7.0 | 3.5 | 0.00 | 0.00 | 0.00 | 84 | 1021.3 |
| 20260905235756 | 50 | 124 | 4.3 | 6.1 | 0.00 | 0.00 | 0.00 | 84 | 1021.3 |
| 20260905235256 | 50 | 103 | 5.2 | 7.0 | 0.00 | 0.00 | 0.00 | 85 | 1021.3 |
| 20260905234757 | 50 | 77 | 3.5 | 5.2 | 0.00 | 0.00 | 0.00 | 85 | 1021.2 |
| 20260905234255 | 50 | 98 | 4.3 | 7.8 | 0.00 | 0.00 | 0.00 | 84 | 1021.3 |
| 20260905233755 | 50 | 21 | 3.5 | 3.5 | 0.00 | 0.00 | 0.00 | 84 | 1021.2 |
| 20260905233256 | 50 | 44 | 3.5 | 2.6 | 0.00 | 0.00 | 0.00 | 84 | 1021.1 |
| 20260905232756 | 50 | 59 | 6.1 | 7.8 | 0.00 | 0.00 | 0.00 | 84 | 1021.0 |
| 20260905232257 | 51 | 37 | 5.2 | 7.8 | 0.00 | 0.00 | 0.00 | 83 | 1020.9 |
| 20260905231758 | 51 | 84 | 4.3 | 2.6 | 0.00 | 0.00 | 0.00 | 82 | 1020.9 |
| 20260905231255 | 51 | 72 | 4.3 | 4.3 | 0.00 | 0.00 | 0.00 | 81 | 1020.8 |
| 20260905230756 | 51 | 163 | 4.3 | 3.5 | 0.00 | 0.00 | 0.00 | 81 | 1020.7 |
| 20260905230257 | 51 | 139 | 6.1 | 4.3 | 0.00 | 0.00 | 0.00 | 80 | 1020.8 |
| 20260905225757 | 51 | 105 | 4.3 | 4.3 | 0.00 | 0.00 | 0.00 | 81 | 1020.7 |
| 20260905225258 | 51 | 45 | 3.5 | 5.2 | 0.00 | 0.00 | 0.00 | 81 | 1020.7 |
| 20260905224758 | 51 | 70 | 3.5 | 2.6 | 0.00 | 0.00 | 0.00 | 81 | 1020.5 |
| 20260905224256 | 51 | 77 | 3.5 | 5.2 | 0.00 | 0.00 | 0.00 | 80 | 1020.5 |
| 20260905223757 | 51 | 58 | 4.3 | 7.0 | 0.00 | 0.00 | 0.00 | 80 | 1020.4 |
| 20260905223257 | 51 | 62 | 5.2 | 6.1 | 0.00 | 0.00 | 0.00 | 79 | 1020.4 |
| 20260905222758 | 52 | 111 | 4.3 | 3.5 | 0.00 | 0.00 | 0.00 | 79 | 1020.2 |
| 20260905222259 | 52 | 152 | 4.3 | 4.3 | 0.00 | 0.00 | 0.00 | 78 | 1020.1 |
| 20260905221759 | 52 | 90 | 7.0 | 6.1 | 0.00 | 0.00 | 0.00 | 78 | 1020.0 |
| 20260905221257 | 52 | 83 | 6.1 | 6.1 | 0.00 | 0.00 | 0.00 | 77 | 1020.0 |
| 20260905220757 | 52 | 44 | 6.1 | 7.8 | 0.00 | 0.00 | 0.00 | 76 | 1020.0 |
| 20260905220258 | 53 | 51 | 6.1 | 3.5 | 0.00 | 0.00 | 0.00 | 76 | 1020.1 |
| 20260905215759 | 53 | 73 | 5.2 | 7.0 | 0.00 | 0.00 | 0.00 | 75 | 1019.9 |
| 20260905215259 | 53 | 86 | 6.1 | 3.5 | 0.00 | 0.00 | 0.00 | 73 | 1020.0 |
| 20260905214800 | 54 | 97 | 7.0 | 4.3 | 0.00 | 0.00 | 0.00 | 72 | 1019.9 |
| 20260905214258 | 54 | 39 | 6.1 | 5.2 | 0.00 | 0.00 | 0.00 | 71 | 1019.8 |
| 20260905213758 | 54 | 77 | 6.1 | 4.3 | 0.00 | 0.00 | 0.00 | 70 | 1019.9 |
| 20260905213259 | 55 | 49 | 6.1 | 7.0 | 0.00 | 0.00 | 0.00 | 70 | 1019.9 |
| 20260905212759 | 55 | 62 | 2.6 | 4.3 | 0.00 | 0.00 | 0.00 | 69 | 1019.8 |
| 20260905212300 | 55 | 63 | 3.5 | 4.3 | 0.00 | 0.00 | 0.00 | 69 | 1020.0 |
| 20260905211800 | 55 | 68 | 5.2 | 4.3 | 0.00 | 0.00 | 0.00 | 69 | 1019.8 |
| 20260905211258 | 55 | 73 | 2.6 | 3.5 | 0.00 | 0.00 | 0.00 | 69 | 1019.7 |
| 20260905210759 | 55 | 94 | 5.2 | 5.2 | 0.00 | 0.00 | 0.00 | 69 | 1019.6 |
| 20260905210300 | 55 | 96 | 3.5 | 3.5 | 0.00 | 0.00 | 0.00 | 69 | 1019.4 |
| 20260905205800 | 55 | 51 | 5.2 | 2.6 | 0.00 | 0.00 | 0.00 | 69 | 1019.4 |
| 20260905205301 | 55 | 52 | 4.3 | 4.3 | 0.00 | 0.00 | 0.00 | 69 | 1019.4 |
| 20260905204802 | 55 | 60 | 5.2 | 5.2 | 0.00 | 0.00 | 0.00 | 69 | 1019.3 |
| 20260905204300 | 55 | 76 | 3.5 | 5.2 | 0.00 | 0.00 | 0.00 | 69 | 1019.4 |
| 20260905203800 | 55 | 51 | 4.3 | 5.2 | 0.00 | 0.00 | 0.00 | 68 | 1019.3 |
| 20260905203301 | 56 | 69 | 4.3 | 5.2 | 0.00 | 0.00 | 0.00 | 66 | 1019.3 |
| 20260905202802 | 56 | 28 | 3.5 | 4.3 | 0.00 | 0.00 | 0.00 | 66 | 1019.3 |
| 20260905202306 | 56 | 69 | 4.3 | 6.1 | 0.00 | 0.00 | 0.00 | 65 | 1019.3 |
| 20260905201803 | 57 | 39 | 3.5 | 2.6 | 0.00 | 0.00 | 0.00 | 65 | 1019.4 |
| 20260905201301 | 57 | 51 | 4.3 | 6.1 | 0.00 | 0.00 | 0.00 | 64 | 1019.3 |
| 20260905200801 | 57 | 75 | 4.3 | 4.3 | 0.00 | 0.00 | 0.00 | 63 | 1019.3 |
| 20260905200302 | 57 | 79 | 3.5 | 2.6 | 0.00 | 0.00 | 0.00 | 63 | 1019.2 |
| 20260905195803 | 57 | 31 | 1.7 | 4.3 | 0.00 | 0.00 | 0.00 | 62 | 1019.2 |
| 20260905195306 | 57 | 38 | 2.6 | 1.7 | 0.00 | 0.00 | 0.00 | 61 | 1019.2 |
| 20260905194804 | 57 | 30 | 4.3 | 3.5 | 0.00 | 0.00 | 0.00 | 61 | 1019.3 |
| 20260905194302 | 57 | 31 | 4.3 | 4.3 | 0.00 | 0.00 | 0.00 | 61 | 1019.2 |
| 20260905193803 | 57 | 89 | 2.6 | 1.7 | 0.00 | 0.00 | 0.00 | 61 | 1019.2 |
| 20260905193303 | 57 | 53 | 5.2 | 2.6 | 0.00 | 0.00 | 0.00 | 60 | 1019.3 |
| 20260905192804 | 58 | 34 | 3.5 | 6.1 | 0.00 | 0.00 | 0.00 | 60 | 1019.4 |
| 20260905192306 | 57 | 41 | 5.2 | 6.1 | 0.00 | 0.00 | 0.00 | 60 | 1019.4 |
| 20260905191805 | 58 | 31 | 2.6 | 1.7 | 0.00 | 0.00 | 0.00 | 59 | 1019.4 |